Regional Weather Roundup
Issued by NWS

Home | Current Version | Previous Version | Text Only | Print | Product List | Glossary On
Versions: 1 2 3 4 5 6 7 8 9 10 11 12 13 14 15 16 17 18 19 20 21 22 23 24 25 26 27 28 29 30 31 32 33 34 35 36 37 38 39 40 41 42 43 44 45 46 47 48 49 50
000
ASUS43 KBIS 062220
RWRND

NORTH DAKOTA REGIONAL WEATHER ROUNDUP
NATIONAL WEATHER SERVICE BISMARCK ND
500 PM CDT WED MAY 06 2015

NOTE: "FAIR" INDICATES FEW OR NO CLOUDS BELOW 12,000 FEET WITH NO
SIGNIFICANT WEATHER AND/OR OBSTRUCTIONS TO VISIBILITY.


NDZ001>003-009>011-017-062300-
NORTHWEST NORTH DAKOTA

CITY           SKY/WX    TMP DP  RH WIND       PRES   REMARKS
WILLISTON      LGT RAIN  54  51  90 N18       29.70S
MINOT          RAIN      58  56  93 W6        29.64S FOG
MINOT AFB      LGT RAIN  59  59 100 W5        29.64R
$$

NDZ018>021-031>035-040>046-062300-
SOUTHWEST NORTH DAKOTA

CITY           SKY/WX    TMP DP  RH WIND       PRES   REMARKS
BISMARCK       CLOUDY    70  58  65 SE14      29.63F
DICKINSON      CLOUDY    62  55  77 NE9       29.63F
GARRISON         N/A     62  59  90 NW12      29.64F
HETTINGER ARPT CLOUDY    63  54  72 VRB3      29.63F
$$

NDZ004>008-012>016-024-026-027-054-062300-
NORTHEAST NORTH DAKOTA

CITY           SKY/WX    TMP DP  RH WIND       PRES   REMARKS
GRAND FORKS    LGT RAIN  62  60  93 SE15      29.76F FOG
GRND FRKS AFB  LGT RAIN  63  61  94 E12       29.76F FOG
DEVILS LAKE    CLOUDY    61  55  82 SE13      29.71F
$$

NDZ022-023-025-028>030-036>039-047>053-062300-
SOUTHEAST NORTH DAKOTA

CITY           SKY/WX    TMP DP  RH WIND       PRES   REMARKS
FARGO          LGT RAIN  66  60  81 E15       29.74F
JAMESTOWN      LGT RAIN  61  59  93 E14       29.69F FOG
$$



USA.gov is the U.S. government's official web portal to all federal, state and local government web resources and services.